Fryeburg, ME

6:52 PM EST on January 19, 2017 (GMT -0500)
Eastern Slopes Regional

Weather History for KIZG - April, 2013

Change the Weather History Date:

Thursday, April 25, 2013

  Actual Average Record
Temperature  
Mean Temperature 46 °F -  
Max Temperature 61 °F 58 °F 70 °F (2008)
Min Temperature 30 °F 30 °F 24 °F (2002)
Degree Days  
Heating Degree Days 19    
Moisture  
Dew Point 30 °F    
Average Humidity 51    
Maximum Humidity 96    
Minimum Humidity 22    
Precipitation  
Precipitation 0.00 in - - ()
Sea Level Pressure  
Sea Level Pressure 30.04 in    
Wind  
Wind Speed 5 mph (WNW)    
Max Wind Speed 15 mph    
Max Gust Speed 26 mph    
Visibility 10 miles    
Events Rain    
Averages and records for this station are not official NWS values.
T = Trace of Precipitation, MM = Missing Value Source: NWS Daily Summary

Daily Weather History Graph

Daily Weather History Graph

Search for Another Location

Airport or City:

Trip Planner

Search our weather history database for the weather conditions in past years. The results will help you decide how hot, cold, wet, or windy it might be!

Date:

Astronomy

Apr. 25, 2013 Rise Set
Actual Time 5:44 AM EDT 7:40 PM EDT
Civil Twilight 5:13 AM EDT 8:11 PM EDT
Nautical Twilight 4:35 AM EDT 8:49 PM EDT
Astronomical Twilight 3:53 AM EDT 9:31 PM EDT
Moon 7:50 PM EDT (4/25) 5:25 AM EDT (4/25)
Length of Visible Light 14h 58m
Length of Day
13h 56m
Full, 100% of the Moon is Illuminated
Apr 25
Full
Apr 25
Full
May 2
Last Quarter
May 9
New
May 18
First Quarter

Hourly Weather History & Observations

Time (EDT) Temp. Dew Point Humidity Pressure Visibility Wind Dir Wind Speed Gust Speed Precip Events Conditions
12:54 AM 50.0 °F 46.0 °F 86% 29.75 in 10.0 mi Calm Calm - N/A   Mostly Cloudy
1:54 AM 48.0 °F 46.9 °F 96% 29.75 in 10.0 mi Calm Calm - 0.00 in   Mostly Cloudy
2:54 AM 48.9 °F 46.9 °F 93% 29.76 in 10.0 mi Calm Calm - 0.00 in   Mostly Cloudy
3:54 AM 48.9 °F 46.9 °F 93% 29.75 in 10.0 mi Variable 3.5 mph - N/A   Overcast
4:54 AM 57.0 °F 46.0 °F 67% 29.78 in 10.0 mi SW 9.2 mph 19.6 mph 0.00 in Rain Light Rain
6:54 AM 52.0 °F 32.0 °F 47% 29.90 in 10.0 mi West 8.1 mph 26.5 mph N/A   Clear
7:54 AM 52.0 °F 30.9 °F 45% 29.95 in 10.0 mi West 11.5 mph 24.2 mph N/A   Clear
8:54 AM 51.1 °F 30.0 °F 44% 29.99 in 10.0 mi WNW 13.8 mph 25.3 mph N/A   Clear
9:54 AM 54.0 °F 28.9 °F 38% 30.03 in 10.0 mi WNW 15.0 mph 23.0 mph N/A   Clear
10:54 AM 55.0 °F 27.0 °F 34% 30.05 in 10.0 mi West 12.7 mph 26.5 mph N/A   Clear
11:54 AM 57.0 °F 28.0 °F 33% 30.06 in 10.0 mi WNW 9.2 mph 23.0 mph N/A   Clear
12:54 PM 57.9 °F 27.0 °F 31% 30.08 in 10.0 mi WNW 8.1 mph 19.6 mph N/A   Clear
1:54 PM 59.0 °F 23.0 °F 25% 30.09 in 10.0 mi WNW 12.7 mph - N/A   Clear
2:54 PM 60.1 °F 24.1 °F 25% 30.10 in 10.0 mi West 8.1 mph - N/A   Clear
3:54 PM 60.1 °F 21.9 °F 23% 30.09 in 10.0 mi Variable 3.5 mph - 0.00 in Rain Light Rain
4:54 PM 60.1 °F 21.0 °F 22% 30.11 in 10.0 mi NNW 8.1 mph - N/A   Clear
5:54 PM 57.9 °F 21.0 °F 24% 30.14 in 10.0 mi NNW 6.9 mph - N/A   Clear
6:54 PM 55.9 °F 21.9 °F 27% 30.17 in 10.0 mi NW 6.9 mph - N/A   Clear
7:54 PM 51.1 °F 19.9 °F 29% 30.21 in 10.0 mi NW 4.6 mph - N/A   Clear
8:54 PM 42.1 °F 25.0 °F 51% 30.25 in 10.0 mi Calm Calm - N/A   Clear
9:54 PM 36.0 °F 28.0 °F 73% 30.28 in 10.0 mi Calm Calm - N/A   Clear
10:54 PM 32.0 °F 27.0 °F 82% 30.29 in 10.0 mi Calm Calm - N/A   Clear
11:54 PM 30.9 °F 27.0 °F 85% 30.31 in 10.0 mi Calm Calm - N/A   Clear